GW4407 Weather Reports


Display with metric or nautical units.
time (UTC)temp
F
wind
direction
speed
MPH
gust
MPH
rain 1hr
in
rain 24hr
in
rain mn
in
humidity
%
barometer
mb
20260506033603 47 3 3.0 8.0 0.03 0.10 0.10 93 1017.2
20260506032917 47 20 4.0 8.0 0.04 0.10 0.10 93 1017.2
20260506031803 47 4 5.0 9.0 0.04 0.09 0.09 92 1017.2
20260506030903 47 350 4.0 9.0 0.03 0.08 0.08 92 1017.4
20260506030216 47 358 4.0 8.0 0.04 0.08 0.08 92 1017.4
20260506025403 47 13 4.0 7.0 0.03 0.07 0.07 92 1017.7
20260506024503 47 13 4.0 8.0 0.04 0.07 0.07 92 1017.4
20260506023603 47 23 4.0 8.0 0.04 0.07 0.07 92 1017.5
20260506022703 47 17 4.0 9.0 0.03 0.06 0.06 91 1017.6
20260506021803 47 2 4.0 9.0 0.03 0.06 0.05 91 1017.5
20260506020903 47 16 4.0 8.0 0.03 0.06 0.05 91 1017.5
20260506020004 47 349 4.0 8.0 0.02 0.05 0.04 91 1017.6
20260506015403 47 354 5.0 8.0 0.02 0.05 0.04 90 1017.7
20260506014503 47 20 4.0 9.0 0.02 0.05 0.03 90 1017.8
20260506013603 47 1 4.0 8.0 0.02 0.06 0.03 90 1017.8
20260506012703 47 354 5.0 9.0 0.02 0.06 0.03 90 1017.9
20260506012016 47 354 5.0 8.0 0.01 0.05 0.02 89 1018.0
20260506010903 47 24 5.0 9.0 0.02 0.06 0.02 89 1017.9
20260506010003 47 17 6.0 9.0 0.02 0.06 0.02 89 1017.9
20260506005403 48 9 5.0 8.0 0.02 0.06 0.02 88 1017.9
20260506004503 48 17 4.0 7.0 0.01 0.05 0.01 88 1018.0
20260506003603 48 2 5.0 10.0 0.01 0.05 0.01 88 1018.1
20260506002703 48 24 5.0 10.0 0.01 0.05 0.01 88 1018.1
20260506001803 48 20 4.0 9.0 0.01 0.06 0.01 88 1018.1
20260506000903 48 10 5.0 11.0 0.00 0.06 0.00 88 1018.4
20260506000003 48 18 3.0 10.0 0.00 0.07 0.00 88 1018.2
20260505235403 48 31 4.0 10.0 0.00 0.08 0.00 88 1018.3
20260505234503 49 10 4.0 8.0 0.00 0.11 0.00 87 1018.5
20260505233817 49 18 4.0 8.0 0.00 0.12 0.00 87 1018.4
20260505232703 49 360 5.0 11.0 0.00 0.14 0.00 86 1018.5
20260505231803 49 2 5.0 13.0 0.00 0.17 0.00 85 1018.6
20260505230903 49 11 4.0 13.0 0.00 0.20 0.00 85 1018.6
20260505230003 49 24 5.0 9.0 0.00 0.27 0.00 85 1018.6
20260505225618 49 19 6.0 9.0 0.00 0.32 0.00 85 1018.7
20260505224503 49 12 5.0 11.0 0.00 0.42 0.00 84 1018.7
20260505223816 49 15 5.0 10.0 0.00 0.46 0.00 84 1018.8
20260505222703 49 351 5.0 11.0 0.00 0.55 0.00 84 1018.9
20260505221803 50 360 5.0 10.0 0.00 0.64 0.00 84 1018.8
20260505220903 50 34 5.0 10.0 0.00 0.77 0.00 83 1018.9
20260505220004 50 24 6.0 10.0 0.00 0.83 0.00 83 1018.8
20260505215403 50 7 6.0 11.0 0.00 0.84 0.83 83 1019.1
20260505214503 50 17 4.0 9.0 0.00 0.84 0.83 83 1019.1
20260505213603 50 8 4.0 11.0 0.00 0.84 0.83 83 1019.2
20260505212919 50 354 5.0 9.0 0.00 0.84 0.83 83 1019.2
20260505211803 50 2 6.0 11.0 0.00 0.84 0.83 82 1019.1
20260505210903 50 21 5.0 10.0 0.00 0.85 0.83 83 1019.3
20260505210003 50 10 4.0 7.0 0.00 0.87 0.83 83 1019.2
20260505205403 50 15 5.0 8.0 0.00 0.88 0.83 83 1019.5
20260505204503 51 10 4.0 10.0 0.00 0.88 0.83 83 1019.4
20260505203603 51 1 5.0 7.0 0.00 0.89 0.83 83 1019.4
20260505202703 51 8 5.0 10.0 0.00 0.89 0.83 83 1019.2
20260505201803 51 17 4.0 8.0 0.00 0.89 0.83 83 1019.3
20260505200903 51 7 5.0 10.0 0.00 0.89 0.83 83 1019.3
20260505200003 51 12 4.0 7.0 0.00 0.89 0.83 83 1019.3
20260505195403 51 18 4.0 7.0 0.00 0.89 0.83 83 1019.2
20260505194503 51 28 4.0 8.0 0.00 0.89 0.83 83 1019.1
20260505193603 51 13 5.0 8.0 0.00 0.89 0.83 83 1019.1
20260505192703 51 12 5.0 9.0 0.00 0.89 0.83 83 1019.2
20260505192018 51 17 5.0 10.0 0.00 0.89 0.83 83 1019.1
20260505190903 51 26 6.0 10.0 0.00 0.89 0.83 83 1019.1
20260505190003 51 11 5.0 9.0 0.00 0.89 0.83 83 1018.9
20260505185403 51 2 5.0 9.0 0.00 0.89 0.83 83 1019.0
20260505184503 51 3 4.0 7.0 0.00 0.89 0.83 83 1018.8
20260505183603 52 358 4.0 9.0 0.00 0.89 0.83 83 1018.8
20260505182918 51 6 5.0 9.0 0.00 0.89 0.83 83 1018.8
20260505181803 51 14 5.0 10.0 0.00 0.89 0.83 83 1018.8
20260505180903 52 27 5.0 8.0 0.00 0.89 0.83 83 1018.8
20260505180003 52 15 5.0 9.0 0.00 0.89 0.83 83 1018.8
20260505175403 52 3 6.0 14.0 0.00 0.89 0.83 82 1018.9
20260505174503 52 31 5.0 8.0 0.00 0.89 0.83 82 1018.8
20260505173603 52 6 5.0 13.0 0.00 0.89 0.83 82 1018.8
20260505172703 52 32 5.0 9.0 0.00 0.89 0.83 82 1018.8
20260505172017 52 10 6.0 13.0 0.00 0.89 0.83 81 1019.0
20260505171116 53 355 5.0 13.0 0.00 0.89 0.83 81 1018.9
20260505170005 53 6 4.0 9.0 0.00 0.89 0.83 81 1019.0
20260505165405 53 21 5.0 9.0 0.00 0.89 0.83 81 1018.9
20260505164503 53 16 5.0 10.0 0.00 0.89 0.83 81 1019.1
20260505163603 53 11 5.0 9.0 0.00 0.89 0.83 81 1019.2
20260505162703 53 356 5.0 8.0 0.00 0.89 0.83 81 1019.0
20260505161803 53 3 4.0 9.0 0.00 0.89 0.83 80 1019.3
20260505160903 53 6 5.0 8.0 0.00 0.89 0.83 81 1019.2
20260505160219 53 19 5.0 10.0 0.00 0.89 0.83 81 1019.3
20260505152703 53 27 5.0 9.0 0.00 0.89 0.83 81 1019.4
20260505152016 53 11 6.0 9.0 0.00 0.89 0.83 81 1019.4
20260505150905 53 359 4.0 7.0 0.00 0.89 0.83 81 1019.4
20260505140219 53 13 4.0 11.0 0.00 0.89 0.83 83 1019.8
20260505124503 51 24 4.0 9.0 0.00 0.89 0.83 90 1020.2
20260505123821 51 17 5.0 9.0 0.00 0.89 0.83 90 1020.3
20260505122920 51 30 5.0 10.0 0.00 0.89 0.83 90 1020.6
20260505121805 51 45 5.0 11.0 0.00 0.89 0.83 89 1020.4
20260505120905 51 54 4.0 9.0 0.00 0.89 0.83 87 1020.5
20260505120218 51 48 4.0 11.0 0.00 0.89 0.83 87 1020.5
20260505115403 51 42 5.0 11.0 0.00 0.89 0.83 88 1020.6
20260505114503 51 33 5.0 10.0 0.00 0.89 0.83 87 1020.6
20260505113605 51 52 4.0 10.0 0.00 0.89 0.83 87 1020.7
20260505112920 50 33 4.0 8.0 0.00 0.89 0.83 88 1020.5
20260505111805 49 19 4.0 8.0 0.00 0.89 0.83 88 1020.6
20260505110903 49 37 5.0 10.0 0.00 0.89 0.83 89 1020.6
20260505101803 49 26 5.0 9.0 0.00 0.89 0.83 90 1020.8
20260505100903 49 41 4.0 11.0 0.00 0.89 0.83 90 1020.7
20260505100003 49 49 5.0 11.0 0.00 0.89 0.83 90 1021.0
20260505095403 49 16 4.0 10.0 0.00 0.89 0.83 90 1021.0
20260505094503 49 47 6.0 11.0 0.00 0.89 0.83 90 1020.9
20260505093605 48 41 6.0 13.0 0.00 0.89 0.83 90 1020.9
20260505092703 48 36 5.0 11.0 0.00 0.89 0.83 90 1021.0
20260505091803 48 56 5.0 9.0 0.00 0.89 0.83 90 1021.1
20260505090905 48 12 5.0 10.0 0.00 0.89 0.83 90 1020.8
20260505090221 48 18 6.0 10.0 0.00 0.89 0.83 90 1020.9
20260505085621 48 62 5.0 13.0 0.00 0.89 0.83 90 1020.9
20260505084720 48 39 6.0 13.0 0.00 0.89 0.83 90 1020.9
20260505083603 48 36 5.0 11.0 0.00 0.89 0.83 90 1021.0
20260505082918 48 16 5.0 10.0 0.00 0.89 0.83 90 1021.0
20260505081803 48 40 7.0 14.0 0.00 0.89 0.83 90 1021.1
20260505080905 48 51 6.0 13.0 0.00 0.89 0.83 90 1021.0
20260505080003 48 67 5.0 11.0 0.00 0.89 0.83 90 1021.0
20260505075620 48 50 4.0 10.0 0.00 0.89 0.83 90 1021.0
20260505074505 48 29 6.0 11.0 0.00 0.89 0.83 90 1020.8
20260505073603 48 20 5.0 11.0 0.00 0.89 0.83 90 1021.0
20260505072918 48 39 5.0 11.0 0.00 0.89 0.83 90 1020.9
20260505071803 48 34 6.0 11.0 0.00 0.89 0.83 90 1021.1
20260505070903 48 13 6.0 14.0 0.00 0.89 0.83 90 1021.1
20260505070004 48 10 6.0 14.0 0.00 0.89 0.83 91 1021.3
20260505065403 47 18 5.0 14.0 0.00 0.89 0.83 91 1021.0
20260505064503 48 26 5.0 10.0 0.00 0.89 0.83 91 1021.3
20260505063603 47 28 7.0 10.0 0.00 0.89 0.83 92 1021.2
20260505062703 47 24 6.0 10.0 0.00 0.89 0.83 92 1021.3
20260505061803 47 17 5.0 9.0 0.00 0.89 0.83 93 1021.4
20260505060905 47 28 5.0 11.0 0.00 0.89 0.83 93 1021.4
20260505060216 48 44 5.0 11.0 0.00 0.89 0.83 93 1021.2
20260505055405 48 360 3.0 7.0 0.00 0.89 0.83 94 1021.4
20260505054505 48 356 4.0 8.0 0.00 0.89 0.83 94 1021.3
20260505053603 48 40 4.0 9.0 0.00 0.89 0.83 94 1021.2
20260505052703 47 23 4.0 9.0 0.00 0.89 0.83 95 1021.0
20260505051803 48 47 3.0 8.0 0.00 0.89 0.83 95 1020.9
20260505050903 48 58 4.0 11.0 0.00 0.89 0.83 95 1020.7
20260505040903 48 35 4.0 8.0 0.00 0.89 0.83 95 1020.9
20260505040005 48 41 4.0 11.0 0.00 0.89 0.83 95 1020.9
20260505035405 49 32 4.0 8.0 0.00 0.89 0.83 95 1020.7
20260505034718 49 42 4.0 8.0 0.00 0.89 0.83 95 1020.7